Date,TemperatureHighF,TemperatureAvgF,TemperatureLowF,DewpointHighF,DewpointAvgF,DewpointLowF,HumidityHigh,HumidityAvg,HumidityLow,PressureMaxIn,PressureMinIn,WindSpeedMaxMPH,WindSpeedAvgMPH,GustSpeedMaxMPH,PrecipitationSumIn
2013-1-1,60,51,42,60,49,39,99,92,76,30.27,29.98,4,2,7,0.13
2013-1-2,45,41,36,39,34,31,88,75,62,30.37,30.26,4,2,7,0.00
2013-1-3,46,42,37,36,33,31,84,71,59,30.50,30.36,4,1,6,0.00
2013-1-4,43,40,38,40,38,34,96,91,69,30.56,30.43,4,1,8,0.19
2013-1-5,57,45,37,47,41,36,96,88,67,30.44,30.27,2,0,3,0.00
2013-1-6,61,46,36,38,36,32,97,71,38,30.44,30.32,4,1,6,0.01
2013-1-7,57,47,37,46,38,31,85,72,55,30.38,30.09,2,1,4,0.00
2013-1-8,57,52,48,56,51,46,99,98,84,30.09,29.87,4,1,7,0.53
2013-1-9,66,58,50,60,56,49,99,95,82,30.06,29.88,5,2,7,1.75
2013-1-10,69,54,45,52,47,43,99,80,47,30.09,30.01,8,2,13,0.00
2013-1-11,70,58,43,67,56,42,99,92,76,30.07,29.85,4,1,7,0.00
2013-1-12,74,68,53,69,64,43,99,88,62,29.87,29.67,6,1,9,0.00
2013-1-13,55,47,40,43,34,30,69,61,46,30.20,29.85,6,3,11,0.00
2013-1-14,53,42,36,37,31,26,74,65,54,30.28,30.14,6,3,10,0.00
2013-1-15,42,38,36,37,34,27,95,85,69,30.31,30.14,5,2,11,0.01
2013-1-16,54,40,31,27,23,16,74,52,22,30.42,30.25,7,2,10,0.00
2013-1-17,67,50,36,40,34,25,74,56,33,30.53,30.36,4,1,7,0.00
2013-1-18,66,50,40,40,37,34,82,63,35,30.56,30.36,2,0,4,0.00
2013-1-19,70,51,37,50,43,36,98,78,43,30.37,30.20,4,1,7,0.00
2013-1-20,71,54,42,57,48,40,99,82,49,30.30,30.14,3,1,5,0.00
2013-1-21,75,57,45,59,50,44,99,81,49,30.27,30.17,2,0,4,0.00
2013-1-22,74,58,49,56,49,44,89,73,50,30.34,30.22,2,1,4,0.00
2013-1-23,77,60,46,61,54,45,98,84,56,30.38,30.23,3,1,4,0.00
2013-1-24,80,65,59,66,61,58,98,88,57,30.29,30.13,4,1,6,0.00
2013-1-25,80,68,60,65,63,59,98,85,61,30.18,30.04,3,1,6,0.00
2013-1-26,72,62,55,63,58,54,97,88,72,30.18,30.05,2,1,6,0.00
2013-1-27,78,68,60,68,64,59,98,88,68,30.12,29.97,3,1,5,0.00
2013-1-28,75,71,69,69,68,67,95,89,77,30.06,29.88,2,1,4,0.00
2013-1-29,86,71,58,69,59,28,94,69,31,29.88,29.51,9,2,12,0.00
2013-1-30,60,51,36,30,23,13,63,35,16,30.28,29.83,10,3,14,0.00
2013-1-31,68,48,33,34,26,20,72,45,18,30.37,30.23,5,1,8,0.00
2013-2-1,74,57,42,48,41,35,90,58,30,30.38,30.21,3,1,4,0.00
2013-2-2,77,58,43,58,50,41,97,75,45,30.31,30.19,3,1,5,0.00
2013-2-3,73,61,51,55,46,39,85,60,39,30.36,30.05,3,1,5,0.00
2013-2-4,78,64,55,63,58,52,96,84,54,30.05,29.82,3,1,8,0.01
2013-2-5,83,65,52,56,48,38,98,61,22,30.01,29.89,2,0,4,0.00
2013-2-6,78,65,59,64,60,53,95,83,58,30.00,29.85,2,0,5,0.02
2013-2-7,81,67,59,65,59,45,98,78,45,30.07,29.88,4,1,8,0.00
2013-2-8,72,60,49,50,40,34,78,51,25,30.24,30.08,5,2,12,0.00
2013-2-9,68,60,50,68,57,39,99,91,57,30.11,29.82,2,1,3,0.03
2013-2-10,69,64,58,68,48,33,99,61,28,30.03,29.78,4,1,9,0.06
2013-2-11,60,56,52,51,47,41,96,74,54,30.08,29.97,3,2,8,0.01
2013-2-12,74,60,51,57,46,27,98,67,24,30.08,29.85,6,2,10,0.02
2013-2-13,67,53,41,38,35,31,76,52,27,30.19,30.05,5,2,11,0.00
2013-2-14,72,52,36,44,39,33,95,64,33,30.19,30.04,4,1,4,0.00
2013-2-15,68,53,41,47,40,26,94,64,33,30.42,30.11,5,2,7,0.00
2013-2-16,68,48,30,33,29,24,79,49,25,30.51,30.27,4,1,8,0.00
2013-2-17,72,55,36,54,41,30,81,61,38,30.27,30.02,3,1,9,0.00
2013-2-18,82,68,60,62,50,28,89,60,23,30.08,29.86,4,2,9,0.00
2013-2-19,70,58,46,36,34,30,62,41,25,30.27,30.08,3,2,7,0.00
2013-2-20,69,60,54,66,53,30,97,81,34,30.14,29.68,2,1,4,0.02
2013-2-21,79,68,55,68,45,21,96,53,13,29.87,29.60,7,2,12,0.00
2013-2-22,67,56,49,42,36,27,71,50,33,30.04,29.86,5,2,8,0.00
2013-2-23,77,57,42,43,37,31,67,51,26,30.09,29.89,4,1,6,0.00
2013-2-24,71,58,40,60,50,37,94,78,61,29.95,29.63,3,1,6,0.00
2013-2-25,64,58,47,62,37,17,98,52,18,29.91,29.60,13,6,24,0.00
2013-2-26,68,53,40,33,30,27,64,43,23,30.01,29.89,6,2,11,0.00
2013-2-27,66,56,46,37,31,25,62,40,24,30.27,29.91,7,2,12,0.00
2013-2-28,63,50,42,32,28,23,58,44,23,30.38,30.23,5,2,12,0.00
2013-3-1,71,53,33,31,25,10,76,39,11,30.34,30.15,6,1,18,0.00
2013-3-2,67,52,38,33,30,27,66,45,25,30.47,30.30,7,2,11,0.00
2013-3-3,78,56,36,45,36,28,76,50,21,30.32,29.99,5,1,8,0.00
2013-3-4,90,66,48,54,48,43,93,59,22,29.99,29.74,4,1,7,0.00
2013-3-5,68,57,44,56,30,15,97,43,15,30.39,29.80,9,4,18,0.00
2013-3-6,67,50,39,28,21,16,55,34,16,30.48,30.26,4,1,8,0.00
2013-3-7,76,57,39,57,47,27,86,69,44,30.28,30.12,3,1,8,0.00
2013-3-8,68,64,60,66,61,55,97,90,80,30.16,30.01,3,1,5,0.03
2013-3-9,77,68,63,69,65,61,98,92,76,30.04,29.65,3,1,7,0.07
2013-3-10,68,61,48,65,44,34,98,57,31,30.16,29.65,8,3,12,0.64
2013-3-11,71,53,41,38,31,25,76,47,21,30.23,30.03,6,2,12,0.00
2013-3-12,82,58,38,44,35,30,77,48,16,30.25,30.10,5,1,7,0.00
2013-3-13,80,65,48,49,43,39,85,48,25,30.46,30.25,3,1,4,0.00
2013-3-14,81,63,45,56,48,39,92,63,31,30.41,30.24,3,1,9,0.00
2013-3-15,83,66,49,58,52,44,98,67,27,30.28,30.01,3,1,6,0.00
2013-3-16,87,69,53,63,58,52,99,73,32,30.03,29.75,4,1,8,0.00
2013-3-17,87,73,66,66,63,60,90,74,43,29.83,29.65,2,1,6,0.00
2013-3-18,95,78,62,67,52,30,98,53,10,29.93,29.72,5,2,12,0.00
2013-3-19,84,69,55,68,58,47,79,67,53,30.00,29.82,3,1,6,0.00
2013-3-20,75,64,57,63,50,39,85,61,31,30.23,29.96,6,2,9,0.00
2013-3-21,76,66,54,62,55,44,88,70,57,30.04,29.64,4,1,9,0.00
2013-3-22,90,74,66,68,65,56,98,77,41,29.74,29.62,3,1,7,0.00
2013-3-23,85,68,57,66,58,52,91,73,51,29.78,29.58,4,1,7,0.00
2013-3-24,68,55,44,60,35,22,92,51,22,30.19,29.71,10,5,17,0.00
2013-3-25,64,48,37,29,23,15,71,41,17,30.43,30.18,3,1,7,0.00
2013-3-26,69,51,37,29,24,18,59,38,15,30.54,30.32,2,1,5,0.00
2013-3-27,70,55,37,51,42,29,83,61,45,30.36,30.19,3,1,5,0.00
2013-3-28,70,64,58,61,57,51,88,79,70,30.23,30.14,2,1,5,0.00
2013-3-29,80,68,57,62,60,56,97,76,51,30.19,30.05,3,1,7,0.00
2013-3-30,86,72,65,67,64,62,92,76,48,30.12,29.90,3,1,5,0.00
2013-3-31,84,70,62,68,64,60,95,84,55,29.97,29.83,8,1,9,0.03
2013-4-1,90,73,61,68,64,60,97,77,43,30.06,29.88,3,1,6,0.00
2013-4-2,80,70,59,68,65,58,96,84,67,30.04,29.80,9,1,9,0.83
2013-4-3,59,54,50,58,53,47,98,93,88,30.16,29.77,6,3,13,0.31
2013-4-4,68,55,47,49,46,43,92,73,48,30.26,30.12,6,2,11,0.00
2013-4-5,75,56,40,53,46,39,97,73,42,30.32,30.09,2,0,5,0.00
2013-4-6,83,66,50,62,56,48,95,73,46,30.11,29.86,3,1,5,0.00
2013-4-7,87,70,60,68,63,58,95,80,51,29.93,29.76,3,1,8,0.00
2013-4-8,75,70,67,69,66,63,94,87,80,29.84,29.67,2,1,5,0.00
2013-4-9,90,77,70,74,70,67,94,80,55,29.73,29.56,3,1,6,0.00
2013-4-10,75,61,47,70,55,45,96,82,67,29.94,29.63,8,3,13,0.25
2013-4-11,74,61,48,47,44,38,81,57,37,30.00,29.82,6,1,11,0.02
2013-4-12,84,63,44,54,47,42,93,61,27,30.04,29.86,2,0,4,0.00
2013-4-13,79,66,51,62,55,46,97,70,45,29.98,29.77,2,0,5,0.00
2013-4-14,90,71,57,70,63,54,96,77,46,29.84,29.62,3,1,5,0.00
2013-4-15,93,78,69,71,68,63,94,73,43,29.81,29.68,2,1,5,0.00
2013-4-16,87,76,65,73,69,63,95,79,59,29.88,29.77,3,1,6,0.00
2013-4-17,82,76,73,73,72,71,97,89,73,29.87,29.66,3,1,6,0.00
2013-4-18,76,67,53,73,64,49,95,90,74,29.89,29.64,8,3,17,0.26
2013-4-20,77,68,57,49,39,32,74,37,20,30.27,30.01,2,2,6,0.00
2013-4-21,83,66,52,60,55,48,88,69,44,30.16,30.00,2,1,5,0.00
2013-4-22,86,71,59,66,62,57,96,74,46,30.12,29.87,3,1,6,0.00
2013-4-23,81,69,55,70,62,46,91,79,61,30.07,29.85,5,2,11,0.00
2013-4-24,63,57,47,46,41,37,78,57,44,30.28,30.07,7,3,10,0.00
2013-4-25,71,62,57,53,46,42,69,57,43,30.35,30.20,3,1,8,0.00
2013-4-26,80,69,60,71,65,52,98,86,68,30.22,30.03,2,0,5,0.01
2013-4-27,84,73,66,72,69,65,97,87,62,30.09,29.92,4,0,5,1.24
2013-4-28,86,71,60,69,65,59,100,82,53,30.02,29.86,2,0,4,0.01
2013-4-29,88,73,66,69,67,63,98,83,46,29.94,29.76,3,1,5,0.27
2013-4-30,67,66,66,66,66,65,98,98,97,29.85,29.80,1,0,1,0.00
2013-5-1,90,83,76,73,70,69,80,67,55,29.92,29.78,1,0,3,0.00
2013-5-2,76,58,50,70,51,38,97,79,62,30.37,29.83,10,6,18,0.55
2013-5-3,69,56,46,40,35,31,74,49,26,30.39,30.12,7,3,12,0.00
2013-5-4,84,62,44,46,40,33,80,49,16,30.13,29.91,3,1,6,0.00
2013-5-5,82,65,52,50,45,40,78,52,27,30.16,30.00,4,1,7,0.00
2013-5-6,78,64,50,57,51,46,90,66,45,30.17,30.01,2,0,3,0.00
2013-5-7,88,69,52,62,56,50,98,67,32,30.11,29.93,2,1,6,0.00
2013-5-8,86,73,63,69,65,60,93,77,52,30.02,29.87,2,1,4,0.00
2013-5-9,81,74,63,74,69,60,95,86,78,29.99,29.82,8,1,20,0.03
2013-5-10,87,71,61,71,65,60,99,83,54,30.02,29.83,10,1,25,0.27
2013-5-11,82,72,64,65,61,55,93,71,48,30.16,30.00,5,2,8,0.00
2013-5-12,83,70,57,59,54,50,83,59,38,30.25,30.11,3,1,4,0.00
2013-5-13,87,71,53,62,56,48,88,60,34,30.28,30.15,2,0,4,0.00
2013-5-14,88,73,59,69,64,57,95,74,51,30.23,30.00,3,1,6,0.00
2013-5-15,90,77,70,74,71,68,96,83,57,30.10,29.82,4,1,8,0.00
2013-5-16,90,78,73,75,71,70,91,82,62,29.86,29.78,2,1,4,0.00
2013-5-17,98,87,75,78,74,70,86,68,47,29.89,29.77,2,1,6,0.00
2013-5-18,96,82,72,74,71,66,95,71,46,29.91,29.80,3,1,10,0.00
2013-5-19,94,82,73,75,72,67,91,73,53,29.85,29.70,3,1,7,0.00
2013-5-20,95,82,72,75,72,69,96,76,51,29.84,29.68,3,1,6,0.00
2013-5-21,92,81,73,76,73,64,95,77,60,29.85,29.68,4,1,5,0.00
2013-5-22,94,79,63,77,67,58,85,67,55,29.92,29.78,3,1,5,0.00
2013-5-23,95,82,75,76,73,72,92,76,52,30.01,29.83,2,1,5,0.00
2013-5-24,79,74,69,74,71,67,99,93,77,30.10,29.99,3,0,7,0.73
2013-5-25,83,73,69,74,71,68,100,93,70,30.16,30.01,3,1,4,2.27
2013-5-26,86,76,71,77,73,69,98,89,73,30.09,29.97,2,0,4,0.18
2013-5-27,90,78,70,77,73,69,97,83,61,30.04,29.84,2,1,6,0.00
2013-5-28,90,80,73,76,73,71,92,80,61,29.92,29.75,3,2,7,0.00
2013-5-29,86,78,74,76,73,71,94,84,70,29.89,29.70,3,2,5,0.00
2013-5-30,91,81,75,77,74,72,93,81,61,29.84,29.75,2,1,5,0.00
2013-5-31,95,83,75,79,76,73,95,80,57,29.88,29.74,2,1,6,0.00
2013-6-1,98,84,76,79,75,73,93,76,50,29.90,29.78,3,1,5,0.00
2013-6-2,91,77,66,75,68,63,98,77,41,30.04,29.88,4,1,8,1.09
2013-6-3,94,78,64,74,68,62,99,75,45,29.99,29.83,2,0,5,0.00
2013-6-4,95,80,69,74,70,66,98,75,41,29.91,29.79,2,0,4,0.00
2013-6-5,96,81,67,74,70,66,98,73,45,29.89,29.73,2,1,4,0.00
2013-6-6,96,81,69,73,71,68,98,73,44,29.92,29.75,3,1,7,0.00
2013-6-7,81,74,69,71,67,64,95,80,70,30.00,29.87,4,1,6,0.00
2013-6-8,92,78,63,75,69,60,91,75,56,29.93,29.78,2,1,4,0.00
2013-6-9,91,80,74,79,74,70,96,84,63,29.96,29.83,3,0,5,0.74
2013-6-10,96,82,71,77,73,70,97,77,49,29.99,29.90,2,0,5,0.00
2013-6-11,95,79,73,76,73,67,97,84,54,30.03,29.96,5,0,10,0.05
2013-6-12,95,77,72,78,74,71,99,91,56,30.05,29.94,3,0,4,0.03
2013-6-13,76,76,74,76,75,74,98,98,97,30.02,30.00,1,0,1,0.00
2013-6-16,84,84,84,75,75,75,76,76,76,30.01,30.01,1,1,1,0.00
2013-6-17,98,90,81,77,75,71,81,62,47,29.99,29.84,2,1,4,0.00
2013-6-18,98,84,76,75,73,69,94,71,40,30.00,29.86,2,0,4,0.00
2013-6-19,98,85,76,76,73,67,95,70,38,29.98,29.88,2,1,6,0.00
2013-6-20,97,84,74,76,73,69,94,71,46,30.05,29.93,3,1,7,0.00
2013-6-21,97,85,77,76,72,64,94,70,39,30.07,29.95,3,1,5,0.00
2013-6-22,98,85,75,75,72,66,95,70,41,30.04,29.88,3,1,6,0.00
2013-6-23,95,84,76,75,72,64,94,70,40,29.98,29.88,3,1,6,0.00
2013-6-24,98,84,76,76,73,70,92,72,45,30.02,29.88,3,1,8,0.00
2013-6-25,100,86,77,75,73,69,91,68,38,30.00,29.85,3,1,7,0.00
2013-6-26,101,86,77,76,74,70,91,69,39,29.97,29.85,2,1,8,0.00
2013-6-27,103,86,75,75,70,62,91,64,27,30.01,29.89,2,1,5,0.00
2013-6-28,104,87,75,74,70,64,94,62,28,29.99,29.80,3,1,4,0.00
2013-6-29,109,91,74,74,68,61,88,53,25,29.87,29.72,3,1,7,0.00
2013-6-30,87,79,70,75,69,64,97,73,47,29.98,29.79,6,1,10,0.27
2013-7-1,90,79,72,69,61,55,75,55,36,30.00,29.87,5,1,7,0.00
2013-7-2,94,78,68,63,57,51,72,52,26,30.08,29.95,3,1,6,0.00
2013-7-3,98,80,69,65,54,42,66,44,18,30.03,29.88,4,0,6,0.00
2013-7-4,98,82,66,70,64,57,94,59,26,29.99,29.86,2,0,4,0.00
2013-7-5,98,84,69,73,67,61,96,61,33,29.98,29.82,2,1,5,0.00
2013-7-6,98,83,70,74,69,63,96,67,33,29.94,29.80,2,1,4,0.00
2013-7-7,100,82,74,76,74,70,96,78,43,29.97,29.86,3,0,6,0.01
2013-7-8,90,80,75,76,74,70,97,83,61,30.12,29.97,3,0,4,0.00
2013-7-9,99,84,74,77,74,71,99,77,41,30.15,30.00,2,1,6,0.00
2013-7-10,100,89,76,76,73,70,94,62,40,30.07,29.91,2,1,4,0.00
2013-7-11,99,85,75,75,72,66,95,67,36,30.01,29.86,2,0,5,0.00
2013-7-12,102,86,74,75,71,62,96,65,30,29.96,29.86,2,0,4,0.00
2013-7-13,103,87,71,73,68,60,92,58,26,29.97,29.82,2,0,4,0.00
2013-7-14,100,83,74,74,70,66,88,67,34,29.89,29.82,4,1,7,0.00
2013-7-15,83,75,70,76,73,69,99,93,78,30.02,29.86,6,0,6,0.31
2013-7-16,85,75,72,79,74,70,99,97,79,30.12,30.00,3,0,3,1.33
2013-7-17,87,76,72,76,73,71,99,92,63,30.17,30.10,3,0,8,0.02
2013-7-18,94,80,72,77,73,70,98,81,50,30.16,29.99,2,1,4,0.00
2013-7-19,95,82,71,76,72,70,99,76,46,30.07,29.89,2,0,4,0.00
2013-7-20,97,82,72,75,72,68,98,74,43,30.00,29.83,2,0,4,0.00
2013-7-21,95,83,75,78,75,73,97,78,52,29.96,29.86,2,1,5,0.00
2013-7-22,98,86,78,78,76,72,94,75,45,29.99,29.87,2,1,7,0.00
2013-7-23,99,86,78,76,74,68,91,71,41,30.01,29.85,2,1,8,0.00
2013-7-24,98,85,77,77,74,70,93,72,44,30.00,29.85,2,0,3,0.00
2013-7-25,100,85,75,76,74,70,96,71,39,30.02,29.93,2,1,5,0.00
2013-7-26,100,85,75,79,74,71,96,72,42,30.03,29.86,2,0,3,0.00
2013-7-27,92,82,75,79,75,70,99,80,59,29.99,29.85,3,1,6,0.10
2013-7-28,98,84,75,78,74,70,87,72,46,29.94,29.83,2,1,7,0.00
2013-7-29,101,86,78,76,74,67,90,69,37,30.03,29.92,3,1,8,0.00
2013-7-30,102,87,78,76,73,66,89,68,32,30.08,29.94,2,1,5,0.00
2013-7-31,104,86,74,74,70,61,94,64,26,30.09,29.91,2,0,5,0.00
2013-8-1,104,88,75,76,72,68,95,62,34,30.03,29.88,2,1,6,0.00
2013-8-2,102,87,74,76,71,68,93,62,35,29.98,29.85,2,1,8,0.00
2013-8-3,101,87,76,75,73,69,92,66,37,30.02,29.90,3,1,6,0.00
2013-8-4,102,87,77,77,74,71,95,69,41,30.05,29.90,2,1,4,0.00
2013-8-5,103,87,74,76,72,66,93,65,34,30.03,29.85,2,1,7,0.00
2013-8-6,104,88,76,75,72,66,93,64,30,29.95,29.78,2,1,4,0.00
2013-8-7,105,88,77,76,72,64,91,64,29,29.92,29.77,3,1,5,0.00
2013-8-8,103,88,78,76,72,60,87,65,26,29.90,29.76,2,1,5,0.00
2013-8-9,104,87,74,76,70,61,96,63,26,29.96,29.83,2,0,4,0.00
2013-8-10,104,85,74,79,73,70,92,71,35,30.04,29.90,3,1,9,0.09
2013-8-11,101,83,74,76,74,70,98,79,39,30.07,29.94,4,0,12,0.02
2013-8-12,98,84,73,74,72,69,97,71,41,30.07,29.93,2,1,7,0.00
2013-8-13,102,87,76,76,72,67,94,66,36,30.04,29.87,3,1,6,0.00
2013-8-14,104,87,76,74,71,62,92,63,28,30.00,29.84,3,1,5,0.00
2013-8-15,101,85,74,74,71,66,91,66,33,30.00,29.87,5,1,10,0.00
2013-8-16,99,84,72,76,70,61,96,68,33,30.02,29.88,6,1,8,0.00
2013-8-17,98,83,72,74,67,59,92,63,32,30.03,29.90,3,1,6,0.00
2013-8-18,98,82,68,70,64,60,79,56,33,30.04,29.95,2,0,3,0.00
2013-8-19,97,82,68,70,66,62,89,61,35,30.06,29.91,2,0,4,0.00
2013-8-20,95,81,70,74,70,64,97,72,37,30.02,29.93,3,1,4,0.00
2013-8-21,99,82,73,76,72,69,92,73,40,30.07,29.97,3,1,5,0.00
2013-8-22,98,85,72,76,72,69,96,70,43,30.08,29.90,2,0,4,0.00
2013-8-23,100,85,73,76,71,66,95,66,37,30.02,29.88,2,0,5,0.00
2013-8-24,103,88,74,74,71,68,88,61,33,30.03,29.90,3,1,4,0.00
2013-8-25,98,85,74,74,71,68,85,65,40,30.07,29.96,3,1,8,0.00
2013-8-26,92,78,74,76,74,72,97,87,55,30.10,30.02,2,0,6,0.21
2013-8-27,94,80,73,77,74,71,98,83,52,30.11,30.02,2,0,5,0.00
2013-8-28,96,83,73,76,72,69,98,74,44,30.11,29.99,2,0,4,0.00
2013-8-29,101,84,72,75,71,67,97,69,35,30.09,29.94,2,0,4,0.00
2013-8-30,104,88,75,73,70,66,86,59,32,30.02,29.86,2,1,4,0.00
2013-8-31,102,86,73,73,71,69,92,63,36,29.94,29.80,2,1,4,0.00
2013-9-1,101,86,73,76,71,67,96,65,36,29.91,29.79,2,1,6,0.00
2013-9-2,102,86,74,76,72,67,97,66,33,29.97,29.81,2,1,4,0.00
2013-9-3,103,86,71,74,69,65,91,61,31,30.00,29.86,2,0,4,0.00
2013-9-4,103,86,78,73,72,69,80,64,36,30.05,29.92,2,1,5,0.00
2013-9-5,99,82,71,75,72,69,95,72,41,30.09,29.97,3,0,5,0.00
2013-9-6,98,83,72,75,72,68,96,72,39,30.09,29.93,2,0,4,0.00
2013-9-7,99,83,74,76,73,71,94,74,41,30.03,29.88,3,1,6,0.00
2013-9-8,90,78,73,77,74,70,97,87,60,29.98,29.88,3,0,5,0.60
2013-9-9,93,78,71,76,72,70,98,84,52,29.99,29.91,3,0,7,0.02
2013-9-10,93,78,72,76,73,71,98,88,53,30.06,29.97,3,0,6,0.42
2013-9-11,95,82,72,77,73,66,99,76,40,30.09,29.98,2,1,4,0.00
2013-9-12,97,82,71,76,71,64,98,74,37,30.06,29.90,2,0,5,0.00
2013-9-13,98,83,73,72,66,-100,93,62,33,29.98,29.80,3,-11,4,0.00
2013-9-14,96,81,68,74,69,66,96,72,39,29.94,29.83,3,1,6,0.17
2013-9-15,95,81,72,77,73,71,99,80,48,30.00,29.91,2,0,6,0.01
2013-9-16,88,77,72,79,74,70,98,91,69,30.05,29.94,3,0,5,0.18
2013-9-17,90,79,73,78,74,72,99,86,59,30.05,29.93,2,0,5,0.00
2013-9-18,94,80,73,77,74,72,98,85,49,30.01,29.88,2,0,4,0.05
2013-9-19,92,80,74,80,76,74,99,89,62,29.95,29.80,2,0,3,0.12
2013-9-20,80,76,71,79,75,70,99,97,93,29.87,29.75,5,1,8,0.78
2013-9-21,86,75,66,70,64,55,94,73,41,29.92,29.82,5,3,10,0.00
2013-9-22,87,72,61,58,54,50,75,55,29,29.91,29.78,3,1,6,0.00
2013-9-23,92,72,58,61,56,53,85,59,29,29.85,29.76,2,0,4,0.00
2013-9-24,97,78,63,65,61,58,85,59,30,29.94,29.82,3,0,5,0.00
2013-9-25,97,81,67,68,64,60,87,60,34,29.90,29.78,2,0,5,0.00
2013-9-26,93,79,67,75,69,59,97,73,43,29.90,29.80,2,1,5,0.00
2013-9-27,90,81,75,82,76,73,96,87,70,29.91,29.81,2,1,5,0.22
2013-9-28,91,80,75,80,77,75,98,91,64,29.97,29.85,2,0,5,0.38
2013-9-29,79,72,66,75,69,66,99,92,76,30.04,29.93,7,2,8,3.80
2013-9-30,91,74,61,67,64,60,100,75,41,29.97,29.81,2,0,3,0.01
2013-10-1,93,78,68,76,72,63,99,84,52,29.92,29.82,2,0,4,0.00
2013-10-2,92,81,75,77,74,71,98,81,55,29.95,29.84,2,1,4,0.11
2013-10-3,92,81,75,76,74,70,96,81,57,29.93,29.82,2,1,7,0.00
2013-10-4,92,80,72,75,73,71,99,80,54,29.92,29.82,2,1,8,0.00
2013-10-5,89,77,64,74,68,47,97,75,51,30.03,29.87,6,2,8,0.00
2013-10-6,80,65,54,56,50,42,97,62,27,30.16,30.01,7,2,12,0.37
2013-10-7,86,67,51,54,48,40,85,55,22,30.20,30.06,2,0,6,0.00
2013-10-8,85,67,52,56,52,48,88,61,31,30.11,29.99,2,0,3,0.00
2013-10-9,85,68,55,66,60,51,98,76,48,30.08,29.95,2,0,3,0.00
2013-10-10,86,74,63,71,67,62,97,78,57,30.04,29.88,2,0,4,0.00
2013-10-11,92,74,72,77,63,-100,94,78,58,29.93,29.82,2,-61,4,0.00
2013-10-12,92,45,76,77,-6,-100,96,41,56,30.00,29.89,2,-462,3,0.00
2013-10-13,73,46,66,72,9,-100,100,63,98,30.16,29.99,1,-361,4,0.34
2013-10-14,85,76,72,76,73,72,100,91,72,30.09,29.91,2,0,5,0.00
2013-10-15,86,76,64,74,71,60,97,86,62,29.99,29.86,4,0,6,0.00
2013-10-16,64,59,55,60,57,54,98,94,88,30.10,29.93,4,2,8,0.98
2013-10-17,75,62,53,59,54,50,97,78,50,30.16,30.00,3,1,4,0.00
2013-10-18,74,65,56,67,62,54,97,88,78,30.03,29.89,1,0,2,0.00
2013-10-19,70,59,48,65,49,42,97,72,38,30.21,30.00,6,2,11,0.00
2013-10-20,77,58,45,58,49,43,96,74,43,30.13,29.94,2,0,5,0.00
2013-10-21,82,68,57,70,64,53,97,88,65,30.07,29.91,3,0,7,0.06
2013-10-22,76,63,51,58,49,40,87,65,30,30.18,30.07,4,2,9,0.00
2013-10-23,83,63,47,53,47,43,89,61,28,30.22,30.12,2,0,5,0.00
2013-10-24,82,65,53,58,52,47,85,66,37,30.26,30.15,2,0,4,0.00
2013-10-25,81,67,54,65,60,53,99,81,55,30.33,30.20,2,0,3,0.00
2013-10-26,82,71,64,69,65,63,96,84,60,30.23,30.07,2,0,5,0.01
2013-10-27,77,70,63,71,67,62,98,91,78,30.11,30.00,2,0,7,0.01
2013-10-28,84,74,68,72,69,65,98,84,65,30.09,29.97,2,1,5,0.00
2013-10-29,84,76,71,73,70,68,95,84,64,30.08,29.95,2,1,4,0.00
2013-10-30,84,77,74,77,74,71,98,91,77,30.03,29.80,2,1,4,0.15
2013-10-31,82,73,54,75,61,43,99,73,25,29.90,29.78,7,2,11,0.12
2013-11-1,85,66,50,63,49,40,89,59,24,30.08,29.85,5,2,8,0.00
2013-11-2,74,63,52,47,42,36,70,49,27,30.32,30.09,6,2,10,0.00
2013-11-3,73,58,45,56,45,39,86,64,31,30.25,30.05,2,0,5,0.00
2013-11-4,71,64,59,65,60,55,96,87,74,30.09,29.97,1,0,3,0.02
2013-11-5,80,72,64,71,68,63,99,89,71,30.03,29.90,2,0,5,0.00
2013-11-6,80,66,57,73,60,44,96,82,63,30.33,29.98,6,2,12,0.34
2013-11-7,64,56,49,46,42,36,74,60,38,30.48,30.32,4,2,9,0.00
2013-11-8,67,58,51,51,46,39,80,65,42,30.41,30.20,2,0,5,0.00
2013-11-9,71,62,55,62,57,49,95,83,70,30.23,30.14,1,0,3,0.13
2013-11-10,68,64,63,62,60,59,93,87,74,30.32,30.19,2,0,2,0.00
2013-11-11,79,66,58,61,58,54,95,77,52,30.30,30.17,2,0,3,0.00
2013-11-12,65,57,46,58,50,29,91,77,52,30.65,30.25,6,2,10,0.00
2013-11-13,60,47,35,35,32,28,86,57,34,30.68,30.45,3,1,7,0.00
2013-11-14,65,48,33,52,39,30,90,72,40,30.45,30.10,2,0,4,0.00
2013-11-15,80,63,49,62,56,48,98,81,54,30.10,29.90,3,0,4,0.00
2013-11-16,81,73,61,74,69,60,98,88,72,29.95,29.76,3,1,7,0.00
2013-11-17,91,77,68,74,72,67,96,85,53,29.94,29.79,2,0,5,0.00
2013-11-18,79,70,63,71,66,59,98,87,72,30.11,29.94,3,1,6,0.00
2013-11-19,72,64,56,63,55,48,88,71,55,30.15,30.01,2,0,4,0.00
2013-11-20,75,67,60,69,62,56,97,86,73,30.03,29.90,1,0,4,0.00
2013-11-21,83,74,70,75,72,69,99,94,76,30.06,29.94,1,0,2,0.06
2013-11-22,74,47,37,73,46,35,99,94,88,30.41,30.05,6,4,12,0.33
2013-11-23,43,40,38,42,38,36,96,93,88,30.50,30.38,6,4,14,0.05
2013-11-24,44,40,36,42,38,35,97,92,78,30.52,30.37,4,2,12,0.45
2013-11-25,43,39,36,42,38,35,98,95,89,30.39,30.13,5,2,8,0.50
2013-11-26,52,45,38,40,37,32,90,74,57,30.42,30.17,6,2,12,0.00
2013-11-27,43,40,36,33,31,28,74,70,64,30.53,30.41,4,2,9,0.00
2013-11-28,57,43,32,32,29,26,88,62,32,30.51,30.40,2,0,3,0.00
2013-11-29,62,48,33,52,44,29,98,86,68,30.56,30.40,2,0,4,0.00
2013-11-30,68,57,49,59,52,45,96,85,73,30.43,30.22,1,0,2,0.00
2013-12-1,71,61,55,62,58,54,98,89,72,30.23,29.99,3,0,7,0.00
2013-12-2,80,65,56,61,57,54,95,79,48,29.99,29.71,3,1,5,0.00
2013-12-3,83,65,56,61,53,47,92,69,29,29.75,29.64,2,0,5,0.00
2013-12-4,74,62,53,67,59,51,99,92,75,29.82,29.70,1,0,2,0.00
2013-12-5,66,48,33,66,44,29,100,85,71,30.10,29.81,8,3,12,0.01
2013-12-6,39,33,29,33,29,24,95,85,75,30.48,30.07,6,4,12,0.03
2013-12-7,33,29,26,26,24,20,89,79,72,30.51,30.34,6,3,9,0.00
2013-12-8,50,38,28,42,34,26,94,87,73,30.35,30.09,2,0,4,0.00
2013-12-9,42,40,34,41,38,32,98,96,90,30.42,30.12,6,2,12,0.05
2013-12-10,48,36,27,32,27,24,96,73,41,30.57,30.40,6,2,10,0.00
2013-12-11,54,39,28,36,32,25,90,76,51,30.59,30.40,2,0,4,0.00
2013-12-12,51,42,35,38,34,29,81,73,59,30.65,30.37,2,1,6,0.00
2013-12-13,50,47,43,49,43,36,98,87,74,30.38,29.94,2,0,3,0.03
2013-12-14,57,48,42,48,40,30,99,76,55,30.38,29.95,7,3,13,0.01
2013-12-15,64,44,31,36,31,27,86,63,34,30.46,30.32,3,1,6,0.00
2013-12-16,67,46,32,38,33,29,90,64,31,30.39,30.25,3,0,7,0.00
2013-12-17,70,50,37,46,39,34,96,70,33,30.39,30.27,2,0,3,0.00
2013-12-18,70,55,41,56,48,37,98,81,51,30.34,30.10,2,0,6,0.00
2013-12-19,75,64,55,63,59,52,96,85,64,30.10,29.82,3,1,8,0.00
2013-12-20,73,67,62,67,65,61,97,91,79,29.87,29.62,3,0,6,0.00
2013-12-21,71,61,44,67,54,40,99,81,34,29.86,29.54,6,1,11,0.46
2013-12-22,56,47,40,45,39,30,94,74,53,30.40,29.87,5,2,12,0.00
2013-12-23,58,42,31,33,29,25,87,65,33,30.59,30.40,3,1,6,0.00
2013-12-24,59,42,29,36,30,27,94,68,30,30.59,30.33,2,0,6,0.00
2013-12-25,56,47,36,49,43,32,97,87,77,30.43,30.29,2,0,4,0.00
2013-12-26,52,47,43,46,41,36,96,80,71,30.48,30.36,4,1,7,0.01
2013-12-27,54,47,43,48,45,41,97,92,71,30.48,30.37,2,0,4,0.26
2013-12-28,57,48,41,49,44,40,97,86,65,30.36,30.08,1,0,5,0.02
2013-12-29,62,48,36,53,44,31,99,87,69,30.30,30.03,7,2,10,0.01
2013-12-30,43,38,34,33,30,26,85,73,59,30.46,30.26,5,2,9,0.00
2013-12-31,51,40,34,33,31,29,88,72,45,30.52,30.31,2,0,4,0.00
2014-1-1,57,48,34,51,42,31,92,80,69,30.30,30.07,3,0,7,0.00
2014-1-2,52,43,32,50,32,26,96,66,41,30.50,30.14,8,3,15,0.00